SL-8 DEB, 1590

Orbit data source: Space-Track

SL-8 DEB, 1590 is space debris in LEO originally from a launch on Sat, 18 Sep 1965 UTC launched from the Tyuratam Missile And Space Complex (TTMTR). Debris objects in space refer to the collection of defunct objects orbiting the Earth. Examples of debris include non-operational satellites, rocket bodies, and fragments generated from explosions, collisions, or faulty payload assembly.

Loading next visibility...
Identifier
1590, 1965-073G
Orbit
LEO
Country
Flag of CISCIS
Related business
Manufacturer
Unknown
Mission
Spacecraft
Bus & Motor
Unknown
Mass
Unknown
Launch date (UTC)
1965-09-18 (60 years ago)
Launch vehicle
Unknown
Launch site
Tyuratam Missile And Space Complex (TTMTR)
Object type
Payload
Rocket body
Debris
Shape & HBR
Unknown shape, 0.1 m
Radar Cross Section
Small (<0.1 m²)

Expand to show TLE details & history
Last TLE update: 3 days ago

TLE from 3 days ago
0 SL-8 DEB
1 01590U 65073G   25291.67759881  .00000216  00000-0  19387-2 0  9995
2 01590  56.0840  26.9083 0180018  73.8666  70.6030 12.49708749728141
Epoch: 2025-10-18T16:15Z
TLE epoch observation values (Epoch: 2025-10-18T16:15:44.537Z)
Latitude
27.38148°
Longitude
-84.70776°
Altitude
1,422.641 km
Speed
7.173 km/s
True Right ascension
12h 26m 31s
True Declination
27° 15' 12"
Sunlit
Object was in daylight at epoch
Visualization orbit readout
Latitude
Unknown
Longitude
Unknown
Altitude
Unknown
Speed
Unknown
Apparent Right ascension
Unknown
Apparent Declination
Unknown
Sunlit
N/A
Visualization observer readout
Local Sidereal Time
09:59:48
Azimuth
Unknown
Elevation
Unknown
Doppler factor
Unknown
Orbital elements
Apogee altitude
1,606.733 km
Perigee altitude
1,324.333 km
Semi-major axis
7,843.67 km
Eccentricity
0.018
Inclination
56.084°
RAAN
26.9083°
Arg. of periapsis
73.8666°
True anomaly
72.56303°
Mean anomaly
70.603°
Eccentric anomaly
71.58159°
Mean motion
3.12438 °/min
Orbital period
115.22 mins
BSTAR
0.0019387
Loading maneuver chart data...
Computing Atmospheric mass density...
Loading historical data...
Loading historical data...
Loading historical data...
Loading historical data...
Loading historical data...
Loading historical data...
Loading historical data...

Documentation

Showing up to 5 results
|